FW9531 Weather Reports


Display with metric or nautical units.
time (UTC)temp
F
wind
direction
speed
MPH
gust
MPH
rain 1hr
in
rain 24hr
in
rain mn
in
humidity
%
barometer
mb
20240303131536 33 206 0.0 0.0 0.00 0.00 0.00 97 995.4
20240303131037 33 207 0.0 0.0 0.00 0.00 0.00 96 995.4
20240303130535 34 206 0.0 0.0 0.00 0.00 0.00 96 995.7
20240303130035 34 206 1.0 1.0 0.00 0.00 0.00 96 995.6
20240303125534 33 203 0.0 1.0 0.00 0.00 0.00 97 995.9
20240303125033 34 215 0.0 0.0 0.00 0.00 0.00 97 995.9
20240303124533 34 215 0.0 0.0 0.00 0.00 0.00 97 995.9
20240303124031 34 216 0.0 1.0 0.00 0.00 0.00 97 996.2
20240303123530 34 215 0.0 1.0 0.00 0.00 0.00 97 996.1
20240303123029 33 214 0.0 0.0 0.00 0.00 0.00 97 996.0
20240303122528 33 214 0.0 0.0 0.00 0.00 0.00 96 996.2
20240303122028 32 214 0.0 0.0 0.00 0.00 0.00 96 996.4
20240303121526 33 214 0.0 0.0 0.00 0.00 0.00 96 996.4
20240303121026 33 214 0.0 0.0 0.00 0.00 0.00 96 996.3
20240303120525 33 214 0.0 0.0 0.00 0.00 0.00 96 996.3
20240303120024 33 214 0.0 0.0 0.00 0.00 0.00 96 996.2
20240303115524 34 214 0.0 1.0 0.00 0.00 0.00 96 996.5
20240303115022 34 214 0.0 1.0 0.00 0.00 0.00 96 996.6
20240303114522 34 213 0.0 1.0 0.00 0.00 0.00 95 996.4
20240303114022 34 213 0.0 1.0 0.00 0.00 0.00 95 996.6
20240303113520 33 213 1.0 1.0 0.00 0.00 0.00 95 996.9
20240303113019 34 213 1.0 1.0 0.00 0.00 0.00 95 996.8
20240303112517 33 214 0.0 0.0 0.00 0.00 0.00 95 996.5
20240303112015 34 211 0.0 0.0 0.00 0.00 0.00 94 997.0
20240303111514 34 211 0.0 0.0 0.00 0.00 0.00 94 997.0
20240303111012 34 208 0.0 0.0 0.00 0.00 0.00 94 996.8
20240303110510 34 203 0.0 2.0 0.00 0.00 0.00 94 996.9
20240303110010 34 203 0.0 1.0 0.00 0.00 0.00 94 997.0
20240303105509 34 203 0.0 1.0 0.00 0.00 0.00 94 997.0
20240303105008 34 204 0.0 1.0 0.00 0.00 0.00 93 997.2
20240303104506 35 202 1.0 1.0 0.00 0.00 0.00 93 997.2
20240303104006 35 205 0.0 1.0 0.00 0.00 0.00 93 997.2
20240303103505 35 203 0.0 2.0 0.00 0.00 0.00 93 997.4
20240303103004 35 206 0.0 0.0 0.00 0.00 0.00 93 997.3
20240303102502 35 206 1.0 1.0 0.00 0.00 0.00 93 997.4
20240303102001 35 207 0.0 0.0 0.00 0.00 0.00 93 997.3
20240303101500 35 191 0.0 2.0 0.00 0.00 0.00 92 997.3
20240303100958 35 202 0.0 2.0 0.00 0.00 0.00 92 997.4
20240303100456 35 180 1.0 2.0 0.00 0.00 0.00 92 997.4
20240303095955 35 195 1.0 1.0 0.00 0.00 0.00 92 997.2
20240303095455 35 196 1.0 1.0 0.00 0.00 0.00 92 997.5
20240303094955 35 201 1.0 1.0 0.00 0.00 0.00 92 997.6
20240303094454 35 204 0.0 1.0 0.00 0.00 0.00 92 997.6
20240303093953 35 211 0.0 0.0 0.00 0.00 0.00 92 997.8
20240303093452 35 210 0.0 2.0 0.00 0.00 0.00 92 997.7
20240303092951 35 205 0.0 1.0 0.00 0.00 0.00 92 998.1
20240303092449 35 204 1.0 2.0 0.00 0.00 0.00 92 997.8
20240303091948 35 203 2.0 2.0 0.00 0.00 0.00 92 998.0
20240303091448 35 207 0.0 2.0 0.00 0.00 0.00 92 998.3
20240303090946 35 209 0.0 2.0 0.00 0.00 0.00 92 998.0
20240303090446 35 216 0.0 1.0 0.00 0.00 0.00 92 997.8
20240303085945 35 208 0.0 0.0 0.00 0.00 0.00 91 998.2
20240303085444 35 229 1.0 1.0 0.00 0.00 0.00 91 997.9
20240303084944 35 214 1.0 1.0 0.00 0.00 0.00 91 998.3
20240303084444 35 205 0.0 1.0 0.00 0.00 0.00 91 998.4
20240303083944 35 188 1.0 1.0 0.00 0.00 0.00 91 998.6
20240303083442 35 209 1.0 1.0 0.00 0.00 0.00 92 998.7
20240303082941 35 196 0.0 2.0 0.00 0.00 0.00 92 998.7
20240303082441 35 208 0.0 1.0 0.00 0.00 0.00 92 998.8
20240303081940 35 213 0.0 1.0 0.00 0.00 0.00 92 998.5
20240303081439 34 208 0.0 2.0 0.00 0.00 0.00 92 998.8
20240303080938 34 216 0.0 1.0 0.00 0.00 0.00 92 998.9
20240303080437 34 204 1.0 1.0 0.00 0.00 0.00 93 999.0
20240303075937 34 204 1.0 1.0 0.00 0.00 0.00 93 999.0
20240303075436 33 213 0.0 0.0 0.00 0.00 0.00 93 999.2
20240303074934 33 211 0.0 0.0 0.00 0.00 0.00 93 999.2
20240303074432 33 211 0.0 0.0 0.00 0.00 0.00 93 999.4
20240303073931 33 215 1.0 1.0 0.00 0.00 0.00 93 999.5
20240303073431 33 207 0.0 1.0 0.00 0.00 0.00 93 999.5
20240303072929 33 201 1.0 2.0 0.00 0.00 0.00 93 999.7
20240303072427 33 210 0.0 1.0 0.00 0.00 0.00 93 999.9
20240303071926 33 203 0.0 1.0 0.00 0.00 0.00 93 999.7
20240303071426 33 217 0.0 2.0 0.00 0.00 0.00 93 1000.2
20240303070925 33 205 0.0 0.0 0.00 0.00 0.00 93 1000.0
20240303070424 33 203 1.0 1.0 0.00 0.00 0.00 92 999.9
20240303065922 33 207 1.0 1.0 0.00 0.00 0.00 92 1000.0
20240303065421 34 212 0.0 1.0 0.00 0.00 0.00 92 999.8
20240303064920 34 181 0.0 1.0 0.00 0.00 0.00 92 1000.2
20240303064419 34 193 0.0 0.0 0.00 0.00 0.00 92 999.8
20240303063919 34 207 0.0 2.0 0.00 0.00 0.00 92 1000.2
20240303063417 34 188 3.0 3.0 0.00 0.00 0.00 91 1000.4
20240303062916 34 207 0.0 1.0 0.00 0.00 0.00 91 1000.3
20240303062415 34 211 0.0 1.0 0.00 0.00 0.00 91 1000.3
20240303061914 34 201 0.0 1.0 0.00 0.00 0.00 91 1000.4
20240303061413 34 200 0.0 2.0 0.00 0.00 0.00 91 1000.3
20240303060912 34 194 1.0 1.0 0.00 0.00 0.00 91 1000.5
20240303060411 34 202 2.0 2.0 0.00 0.00 0.00 91 1000.5
20240303055910 34 194 0.0 1.0 0.00 0.00 0.00 90 1000.6
20240303055409 34 203 1.0 2.0 0.00 0.00 0.00 90 1000.7
20240303054908 34 205 0.0 2.0 0.00 0.00 0.00 90 1000.7
20240303054407 35 166 2.0 2.0 0.00 0.00 0.00 90 1000.9
20240303053907 35 195 0.0 1.0 0.00 0.00 0.00 89 1000.9
20240303053405 35 201 0.0 3.0 0.00 0.00 0.00 89 1001.1
20240303052904 35 171 0.0 5.0 0.00 0.00 0.00 89 1001.2
20240303052403 35 203 0.0 0.0 0.00 0.00 0.00 89 1001.2
20240303051903 35 219 1.0 1.0 0.00 0.00 0.00 88 1001.3
20240303051402 35 194 1.0 2.0 0.00 0.00 0.00 88 1001.1
20240303050900 35 198 0.0 2.0 0.00 0.00 0.00 88 1001.2
20240303050359 35 175 0.0 1.0 0.00 0.00 0.00 88 1001.3
20240303045857 35 200 0.0 1.0 0.00 0.00 0.00 87 1001.4
20240303045357 36 193 0.0 2.0 0.00 0.00 0.00 87 1001.6
20240303044856 36 203 0.0 2.0 0.00 0.00 0.00 86 1001.5
20240303044356 36 255 2.0 2.0 0.00 0.00 0.00 86 1001.6
20240303043855 36 188 2.0 3.0 0.00 0.00 0.00 85 1001.6
20240303043355 36 215 0.0 2.0 0.00 0.00 0.00 85 1001.6
20240303042855 36 202 1.0 3.0 0.00 0.00 0.00 85 1001.8
20240303042353 37 202 0.0 2.0 0.00 0.00 0.00 84 1001.7
20240303041853 37 181 1.0 2.0 0.00 0.00 0.00 84 1001.6
20240303041352 37 234 1.0 2.0 0.00 0.00 0.00 83 1001.6
20240303040852 37 209 1.0 2.0 0.00 0.00 0.00 83 1001.7
20240303040351 37 143 1.0 3.0 0.00 0.00 0.00 83 1001.5
20240303035850 38 203 0.0 1.0 0.00 0.00 0.00 82 1001.2
20240303035349 38 234 1.0 2.0 0.00 0.00 0.00 81 1001.5
20240303034847 38 198 2.0 3.0 0.00 0.00 0.00 81 1001.5
20240303034346 39 186 0.0 1.0 0.00 0.00 0.00 80 1001.4
20240303033845 39 212 0.0 2.0 0.00 0.00 0.00 80 1001.3
20240303033345 39 195 1.0 2.0 0.00 0.00 0.00 79 1001.3
20240303032845 39 154 1.0 2.0 0.00 0.00 0.00 79 1001.4
20240303032343 40 201 1.0 3.0 0.00 0.00 0.00 78 1001.1
20240303031843 40 232 2.0 3.0 0.00 0.00 0.00 78 1001.1
20240303031341 41 210 0.0 1.0 0.00 0.00 0.00 77 1001.0
20240303030839 41 199 0.0 2.0 0.00 0.00 0.00 77 1001.2
20240303030338 41 161 1.0 5.0 0.00 0.00 0.00 76 1001.1
20240303025836 42 237 0.0 2.0 0.00 0.00 0.00 76 1000.9
20240303025336 42 168 0.0 2.0 0.00 0.00 0.00 75 1000.8
20240303024835 43 184 0.0 3.0 0.00 0.00 0.00 74 1000.8
20240303024334 44 193 1.0 3.0 0.00 0.00 0.00 74 1000.8
20240303023832 45 154 2.0 5.0 0.00 0.00 0.00 73 1000.6
20240303023330 46 171 2.0 2.0 0.00 0.00 0.00 72 1000.6
20240303022829 46 191 0.0 6.0 0.00 0.00 0.00 71 1000.8
20240303022330 46 78 3.0 5.0 0.00 0.00 0.00 71 1000.7
20240303021827 46 176 2.0 3.0 0.00 0.00 0.00 72 1000.6
20240303021326 46 191 0.0 1.0 0.00 0.00 0.00 72 1000.9
20240303020825 46 195 1.0 2.0 0.00 0.00 0.00 73 1000.8
20240303020323 46 210 1.0 2.0 0.00 0.00 0.00 73 1000.8
20240303015823 43 205 1.0 2.0 0.00 0.00 0.00 78 1000.8
20240303015321 44 216 0.0 1.0 0.00 0.00 0.00 75 1000.7
20240303014821 45 216 0.0 1.0 0.00 0.00 0.00 73 1000.8
20240303014320 44 216 0.0 0.0 0.00 0.00 0.00 76 1000.9
20240303013820 44 209 0.0 0.0 0.00 0.00 0.00 75 1000.8
20240303013318 45 210 0.0 0.0 0.00 0.00 0.00 75 1001.2
20240303012818 44 210 0.0 0.0 0.00 0.00 0.00 76 1001.0
20240303012316 44 210 0.0 0.0 0.00 0.00 0.00 75 1001.2
20240303011815 45 210 0.0 0.0 0.00 0.00 0.00 74 1001.0
20240303011313 45 210 0.0 0.0 0.00 0.00 0.00 73 1001.0
20240303010813 45 210 0.0 0.0 0.00 0.00 0.00 74 1001.0
20240303010312 46 210 0.0 0.0 0.00 0.00 0.00 73 1001.2
20240303005810 46 210 0.0 0.0 0.00 0.00 0.00 72 1001.0
20240303005310 46 210 0.0 0.0 0.00 0.00 0.00 72 1001.1
20240303004809 47 210 0.0 0.0 0.00 0.00 0.00 71 1001.2
20240303004307 47 210 0.0 0.0 0.00 0.00 0.00 71 1001.1
20240303003806 48 210 0.0 0.0 0.00 0.00 0.00 71 1001.3
20240303003306 47 210 0.0 0.0 0.00 0.00 0.00 71 1001.2
20240303002805 48 210 0.0 0.0 0.00 0.00 0.00 71 1001.1
20240303002306 48 210 0.0 0.0 0.00 0.00 0.00 69 1001.1
20240303001803 48 210 0.0 0.0 0.00 0.00 0.00 69 1001.0
20240303001301 49 210 0.0 0.0 0.00 0.00 0.00 68 1001.2
20240303000801 50 210 0.0 0.0 0.00 0.00 0.00 67 1001.0
20240303000300 50 210 0.0 0.0 0.00 0.00 0.00 65 1000.9
20240302235758 51 210 0.0 0.0 0.00 0.00 0.00 65 1000.8
20240302235257 51 210 0.0 0.0 0.00 0.00 0.00 64 1000.7
20240302234756 52 210 0.0 0.0 0.00 0.00 0.00 63 1000.9
20240302234255 52 210 0.0 0.0 0.00 0.00 0.00 62 1000.7
20240302233754 53 210 0.0 0.0 0.00 0.00 0.00 61 1000.9
20240302233254 53 210 0.0 0.0 0.00 0.00 0.00 61 1000.8
20240302232753 54 210 0.0 0.0 0.00 0.00 0.00 60 1000.9
20240302232253 54 199 0.0 2.0 0.00 0.00 0.00 59 1000.9
20240302231751 54 206 1.0 2.0 0.00 0.00 0.00 59 1000.9
20240302231249 54 201 1.0 2.0 0.00 0.00 0.00 59 1000.8
20240302230748 54 206 0.0 2.0 0.00 0.00 0.00 59 1000.6
20240302230248 55 203 1.0 2.0 0.00 0.00 0.00 58 1000.8
20240302225746 55 210 0.0 2.0 0.00 0.00 0.00 58 1000.6
20240302225245 55 209 0.0 0.0 0.00 0.00 0.00 58 1000.7
20240302224742 55 214 1.0 2.0 0.00 0.00 0.00 58 1001.0
20240302224242 55 205 1.0 2.0 0.00 0.00 0.00 57 1001.0
20240302223741 55 196 1.0 2.0 0.00 0.00 0.00 57 1001.1
20240302223239 56 209 1.0 3.0 0.00 0.00 0.00 57 1001.0
20240302222738 56 187 1.0 2.0 0.00 0.00 0.00 56 1001.2
20240302222238 56 181 2.0 5.0 0.00 0.00 0.00 56 1001.2
20240302221737 56 177 3.0 5.0 0.00 0.00 0.00 56 1001.3
20240302221236 56 218 0.0 2.0 0.00 0.00 0.00 56 1001.2
20240302220735 56 209 1.0 2.0 0.00 0.00 0.00 56 1001.3
20240302220234 56 201 0.0 1.0 0.00 0.00 0.00 56 1001.6
20240302215733 56 211 1.0 2.0 0.00 0.00 0.00 56 1001.4
20240302215232 56 212 1.0 3.0 0.00 0.00 0.00 55 1001.5
20240302214730 57 203 2.0 3.0 0.00 0.00 0.00 55 1001.6
20240302214228 56 207 1.0 3.0 0.00 0.00 0.00 55 1001.6
20240302213727 56 203 1.0 5.0 0.00 0.00 0.00 56 1001.7
20240302213226 56 216 1.0 5.0 0.00 0.00 0.00 55 1001.8
20240302212725 57 212 0.0 0.0 0.00 0.00 0.00 54 1002.0
20240302212224 56 214 1.0 5.0 0.00 0.00 0.00 54 1002.0
20240302211723 55 216 2.0 3.0 0.00 0.00 0.00 56 1002.0
20240302211222 55 157 3.0 6.0 0.00 0.00 0.00 56 1002.2
20240302210720 55 190 3.0 5.0 0.00 0.00 0.00 56 1002.2
20240302210220 56 211 0.0 5.0 0.00 0.00 0.00 55 1002.2
20240302205719 55 204 1.0 5.0 0.00 0.00 0.00 56 1002.1
20240302205218 55 177 3.0 5.0 0.00 0.00 0.00 57 1002.1
20240302204717 55 209 3.0 5.0 0.00 0.00 0.00 56 1002.0
20240302204215 54 211 0.0 2.0 0.00 0.00 0.00 58 1002.1
20240302203713 54 180 2.0 5.0 0.00 0.00 0.00 58 1002.0
20240302203212 54 193 2.0 3.0 0.00 0.00 0.00 57 1002.0
20240302202711 53 208 2.0 3.0 0.00 0.00 0.00 58 1002.0
20240302202210 54 192 3.0 5.0 0.00 0.00 0.00 58 1002.2
20240302201710 54 219 1.0 2.0 0.00 0.00 0.00 58 1002.1
20240302201209 54 205 1.0 2.0 0.00 0.00 0.00 58 1002.2
20240302200708 53 210 1.0 2.0 0.00 0.00 0.00 58 1002.2
20240302200208 53 218 1.0 5.0 0.00 0.00 0.00 58 1002.2
20240302195706 54 179 2.0 3.0 0.00 0.00 0.00 57 1002.4
20240302195205 54 186 3.0 5.0 0.00 0.00 0.00 57 1002.5
20240302194704 54 210 0.0 2.0 0.00 0.00 0.00 58 1002.6
20240302194204 55 218 1.0 2.0 0.00 0.00 0.00 56 1002.4
20240302193704 53 209 1.0 5.0 0.00 0.00 0.00 58 1002.4
20240302193203 54 201 1.0 5.0 0.00 0.00 0.00 57 1002.5
20240302192702 54 203 1.0 3.0 0.00 0.00 0.00 58 1002.5
20240302192202 54 186 2.0 5.0 0.00 0.00 0.00 57 1002.8
20240302191702 55 204 1.0 5.0 0.00 0.00 0.00 56 1002.6
20240302191202 54 217 1.0 2.0 0.00 0.00 0.00 57 1002.5
20240302190700 54 194 3.0 5.0 0.00 0.00 0.00 58 1002.5
20240302190200 53 188 2.0 6.0 0.00 0.00 0.00 58 1002.4
20240302185658 53 210 0.0 3.0 0.00 0.00 0.00 58 1002.7
20240302185157 53 188 3.0 5.0 0.00 0.00 0.00 58 1002.6
20240302184656 54 157 3.0 5.0 0.00 0.00 0.00 57 1002.6
20240302184155 54 211 0.0 2.0 0.00 0.00 0.00 57 1003.0
20240302183654 52 217 1.0 3.0 0.00 0.00 0.00 58 1003.0
20240302183154 52 200 2.0 6.0 0.00 0.00 0.00 60 1003.2
20240302182654 52 199 1.0 5.0 0.00 0.00 0.00 59 1003.3
20240302182153 52 208 0.0 3.0 0.00 0.00 0.00 60 1003.1
20240302181651 51 192 0.0 5.0 0.00 0.00 0.00 61 1003.3
20240302181151 51 176 3.0 6.0 0.00 0.00 0.00 62 1003.4
20240302180650 51 203 2.0 5.0 0.00 0.00 0.00 61 1003.4
20240302180148 51 193 1.0 7.0 0.00 0.00 0.00 61 1003.7
20240302175648 51 191 2.0 3.0 0.00 0.00 0.00 63 1003.4
20240302175147 51 206 1.0 3.0 0.00 0.00 0.00 62 1003.8
20240302174646 50 208 2.0 3.0 0.00 0.00 0.00 62 1003.8
20240302174145 50 193 1.0 2.0 0.00 0.00 0.00 63 1003.7
20240302173643 49 191 1.0 3.0 0.00 0.00 0.00 64 1004.0
20240302173142 49 216 2.0 5.0 0.00 0.00 0.00 64 1003.8
20240302172641 49 195 2.0 3.0 0.00 0.00 0.00 64 1004.0
20240302172140 49 212 1.0 2.0 0.00 0.00 0.00 63 1004.1
20240302171638 48 211 1.0 2.0 0.00 0.00 0.00 65 1004.1
20240302171138 48 210 2.0 5.0 0.00 0.00 0.00 65 1004.2
20240302170637 49 189 3.0 3.0 0.00 0.00 0.00 64 1004.0
20240302170137 49 211 1.0 6.0 0.00 0.00 0.00 65 1004.1
20240302165636 49 209 2.0 5.0 0.00 0.00 0.00 65 1003.9
20240302165135 48 203 2.0 2.0 0.00 0.00 0.00 64 1003.9
20240302164634 47 214 2.0 3.0 0.00 0.00 0.00 66 1004.2
20240302164133 47 208 1.0 1.0 0.00 0.00 0.00 67 1004.3
20240302163632 47 198 2.0 3.0 0.00 0.00 0.00 67 1004.4
20240302163131 47 216 0.0 3.0 0.00 0.00 0.00 67 1004.3
20240302162629 46 195 2.0 3.0 0.00 0.00 0.00 68 1004.5
20240302162129 46 213 0.0 0.0 0.00 0.00 0.00 68 1004.8
20240302161628 46 197 2.0 2.0 0.00 0.00 0.00 69 1004.3
20240302161128 45 199 2.0 2.0 0.00 0.00 0.00 70 1004.4
20240302160627 45 200 0.0 2.0 0.00 0.00 0.00 70 1004.6
20240302160127 44 209 0.0 2.0 0.00 0.00 0.00 71 1004.9
20240302155627 45 163 3.0 5.0 0.00 0.00 0.00 71 1004.7
20240302155126 44 202 1.0 2.0 0.00 0.00 0.00 71 1004.7
20240302154625 44 206 1.0 2.0 0.00 0.00 0.00 73 1004.6
20240302154124 43 213 0.0 2.0 0.00 0.00 0.00 73 1004.7
20240302153623 43 205 0.0 3.0 0.00 0.00 0.00 75 1004.7
20240302153123 42 208 0.0 2.0 0.00 0.00 0.00 75 1004.9
20240302152621 42 209 0.0 1.0 0.00 0.00 0.00 75 1004.9
20240302152120 42 227 0.0 1.0 0.00 0.00 0.00 76 1004.9
20240302151620 42 209 1.0 2.0 0.00 0.00 0.00 77 1005.0
20240302151119 41 184 0.0 1.0 0.00 0.00 0.00 78 1004.9
20240302150619 40 218 0.0 1.0 0.00 0.00 0.00 79 1005.2
20240302150117 40 216 0.0 1.0 0.00 0.00 0.00 79 1005.1
20240302145615 40 212 0.0 0.0 0.00 0.00 0.00 80 1005.2
20240302145114 40 212 0.0 0.0 0.00 0.00 0.00 80 1005.2
20240302144612 39 219 1.0 2.0 0.00 0.00 0.00 81 1005.2
20240302144112 39 215 0.0 1.0 0.00 0.00 0.00 82 1005.3
20240302143610 38 212 0.0 3.0 0.00 0.00 0.00 83 1005.4
20240302143109 38 215 0.0 1.0 0.00 0.00 0.00 84 1005.4
20240302142608 37 213 0.0 0.0 0.00 0.00 0.00 86 1005.4
20240302142109 37 213 1.0 2.0 0.00 0.00 0.00 87 1005.3
20240302141608 36 209 0.0 0.0 0.00 0.00 0.00 89 1005.2
20240302141106 35 210 0.0 0.0 0.00 0.00 0.00 91 1005.3
20240302140606 33 211 0.0 1.0 0.00 0.00 0.00 93 1005.4
20240302140106 32 211 0.0 0.0 0.00 0.00 0.00 94 1005.6
20240302135605 32 211 0.0 0.0 0.00 0.00 0.00 95 1005.4
20240302135104 30 211 0.0 0.0 0.00 0.00 0.00 95 1005.5
20240302134602 30 211 0.0 0.0 0.00 0.00 0.00 95 1005.5
20240302134101 29 210 0.0 0.0 0.00 0.00 0.00 95 1005.4
20240302133600 29 211 0.0 0.0 0.00 0.00 0.00 95 1005.5
20240302133058 29 211 0.0 0.0 0.00 0.00 0.00 95 1005.3
20240302132557 28 211 0.0 0.0 0.00 0.00 0.00 95 1005.4
20240302132056 28 211 0.0 0.0 0.00 0.00 0.00 95 1005.3